Torna al catalogo

STARLINK-4267

AttivoComunicazioniVLEO
NORAD 52864·PAYLOAD·🇺🇸 United States

Lanciato Jun 17, 2022 da Cape Canaveral Space Force Station

Loading…

Prossimi Passaggi (prossime 24 ore)

TLE

AggiornatoSource: CelesTrak SupGP

Epoca: Sep 15, 2026, 01:50 UTC

1 52864C 22062AL  26258.07687500 -.00020598  00000+0 -60858-3 0  2586
2 52864  53.1586 242.7191 0001264  89.2391  86.0162 15.34400656    14

Traccia STARLINK-4267 in tempo reale con AllMySat

Download on the App Store